Weather in Ashburton

New Zealand     43°53′45″S   171°45′34″E
temp.,
°C
wind,
m/s
gust,
m/s
humid.,
%
clouds,
%
prec.,
mm/h
press.,
hPa
HPBL,
m
9 december, thu
thu901:00+13wnw228845 0.0 101419
04:00+11wsw46941 0.0 1013115
07:00+13wsw479325 0.0 1015235
10:00+17ssw327283 0.0 1015718
13:00+20sse4363100 0.0 1012935
16:00+19ese4266100 0.0 1010505
19:00+19e447477 0.1 1009411
22:00+14ssw479797 0.9 1012177
10 december, fri
fri1001:00+14s5796100 1.4 1014452
04:00+12sse4596100 0.6 1015365
07:00+12se4596100 1.1 1016345
10:00+12ese3594100 0.4 1017369
13:00+14ene458982 0.5 1015528
16:00+16ne467989 0.1 1013695
19:00+17ne5776100 0.2 1012730
22:00+15ne598593 0.0 1013385
11 december, sat
sat1101:00+12nne369876 0.0 1013178
04:00+14nnw118897 0.0 101268
07:00+14wsw238790 0.1 1013169
10:00+17ssw337678 0.0 1013713
13:00+15ssw5685100 0.1 1013539
16:00+13s7890100 0.1 1014630
19:00+12s5893100 1.8 1016513
22:00+11s1296100 2.1 1019136
12 december, sun
sun1201:00+12sw2296100 3.4 1019163
04:00+11se5792100 1.4 1020452
07:00+10se3591100 2.1 1021275
10:00+11ese2491100 0.3 1023251
13:00+11e3492100 1.0 1022383
16:00+11e4694100 2.6 1022466
19:00+11ene3493100 2.9 1021384
22:00+10nne3894100 0.1 1022388
13 december, mon
mon1301:00+10ne3995100 0.1 1022497
04:00+11ne41096100 0.0 1020526
07:00+12ne4895100 0.1 1019519
10:00+16ne4579100 0.1 1018750
13:00+19ene5665100 0.1 1016963
16:00+21ne6664100 0.0 1014961
19:00+18ne6773100 0.0 1013509
22:00+15ne4892100 0.0 1012231